CDT,Max TemperatureF,Mean TemperatureF,Min TemperatureF,Max Dew PointF,MeanDew PointF,Min DewpointF,Max Humidity, Mean Humidity, Min Humidity, Max Sea Level PressureIn, Mean Sea Level PressureIn, Min Sea Level PressureIn, Max VisibilityMiles, Mean VisibilityMiles, Min VisibilityMiles, Max Wind SpeedMPH, Mean Wind SpeedMPH, Max Gust SpeedMPH,PrecipitationIn, CloudCover, Events, WindDirDegrees
2013-6-1,78,73,68,72,68,63,94,85,73,29.96,29.86,29.77,10,9,2,14,8,21,0.28,5,,102
2013-6-2,80,70,59,66,58,54,94,69,39,30.04,29.99,29.95,10,10,0,12,5,16,0.00,1,,344
2013-6-3,86,72,57,63,59,54,94,68,40,30.03,29.97,29.89,10,10,10,12,5,,0.00,1,,99
2013-6-4,84,72,60,68,63,59,94,74,54,30.08,29.93,29.87,10,10,10,18,7,20,0.00,0,,93
2013-6-5,89,76,64,70,66,61,94,74,49,30.02,29.90,29.82,10,10,7,13,6,17,0.00,0,,80
2013-6-6,77,70,62,68,65,61,94,86,61,29.94,29.88,29.82,10,9,1,16,4,26,0.65,3,,5
2013-6-7,84,70,57,63,56,50,94,65,30,29.97,29.93,29.90,10,10,10,12,6,17,0.00,1,,349
2013-6-8,86,70,55,61,57,54,94,65,35,29.97,29.92,29.85,10,10,7,10,3,10,0.00,0,,139
2013-6-9,89,76,62,70,65,61,94,75,46,29.94,29.90,29.87,10,9,1,18,4,25,0.37,2,,190
2013-6-10,93,78,64,72,67,63,100,71,38,29.98,29.95,29.92,10,10,2,12,4,16,0.00,0,,209
2013-6-11,93,80,68,73,70,64,94,69,46,30.05,30.00,29.96,10,10,10,14,7,17,0.00,0,,193
2013-6-12,91,81,71,73,70,68,94,71,49,30.07,30.01,29.96,10,10,7,14,7,20,0.00,1,,198
2013-6-13,96,82,69,73,70,68,94,68,41,30.05,29.99,29.91,10,10,10,13,5,16,0.00,0,,240
2013-6-14,96,84,73,73,71,70,94,71,41,30.02,29.97,29.92,10,10,7,14,4,,0.00,1,,91
2013-6-15,89,79,69,72,67,63,94,70,45,30.05,30.00,29.94,10,10,3,14,6,12,0.13,1,,118
2013-6-16,91,80,68,75,70,63,94,76,52,30.07,29.98,29.89,10,9,0,18,5,25,2.41,2,,118
2013-6-17,86,76,66,70,67,64,100,81,55,30.00,29.93,29.89,10,9,1,13,6,33,0.75,2,,19
2013-6-18,86,75,64,70,66,63,100,74,51,30.00,29.96,29.91,10,10,7,9,4,,0.00,1,,55
2013-6-19,87,74,62,70,66,61,94,74,46,30.05,30.00,29.96,10,10,4,10,5,,0.00,1,,113
2013-6-20,91,80,69,73,70,68,94,72,49,30.09,30.03,29.99,10,10,7,10,6,,0.00,1,,136
2013-6-21,91,81,71,72,70,68,94,68,46,30.11,30.06,30.01,10,9,7,13,6,17,0.00,0,,158
2013-6-22,91,81,71,72,69,66,94,68,43,30.08,30.02,29.94,10,10,7,13,6,,0.00,0,,149
2013-6-23,91,82,73,72,69,68,88,67,46,30.04,29.99,29.95,10,10,7,13,8,18,0.00,0,,154
2013-6-24,91,81,71,72,69,66,94,68,43,30.08,30.02,29.96,10,10,7,13,8,18,0.00,0,,163
2013-6-25,91,81,71,72,69,68,94,67,46,30.03,29.97,29.89,10,10,7,17,9,25,0.00,1,,171
2013-6-26,95,84,73,72,70,66,89,66,39,30.00,29.94,29.89,10,10,7,14,8,20,0.00,1,,177
2013-6-27,100,86,71,72,70,68,94,65,35,30.02,29.96,29.89,10,10,7,10,3,,0.00,0,,197
2013-6-28,98,86,73,72,68,61,94,61,30,29.95,29.87,29.82,10,10,10,15,4,20,0.00,0,,309
2013-6-29,91,80,68,66,60,50,83,54,24,29.88,29.84,29.79,10,10,10,16,5,22,0.00,0,,351
2013-6-30,86,75,64,61,56,50,83,55,30,29.93,29.88,29.82,10,10,10,17,7,26,0.00,0,,350